If you wish to contribute or participate in the discussions about articles you are invited to join SKYbrary as a registered user

 Actions

Bluefields Airport

From SKYbrary Wiki

MNBL
Airport
ICAO: MNBL – IATA: BLU
Summary
Name Bluefields Airport
Region South America and Caribbean
Territory Nicaragua NI.gif
Location Santa Rosa, South Caribbean Coast Autonomous Region
Serving Bluefields
Elevation 12.497 m
41 ft12.497 m
Coordinates 11° 59' 31.00" N, 83° 46' 21.00" W
Runways
Designator Length Width Surface ROPS
5/23 2019 m6,624.016 ft
30 m98.425 ft
ASP /


METAR
Observation MNBL 172300Z 07004KT 9999 FEW025 29/25 Q1010
Station Bluefields
Date/Time 17 October 2019 23:00:00
Wind direction 70°
Wind speed 04 kts
Lowest cloud amount few clouds
Temperature 29°C
Dew point 25°C
Humidity 79%
QNH 1010 hPa
Weather condition n/a

Bluefields International Airport is an airport that serves Bluefields, Nicaragua.

Climatology

Tropical rainforest climate (Köppen climate classification Af)

Maps

Terrain

Loading map...

Airport Layout

Loading map...


Accidents & Serious Incidents at or in vicinity of MNBL

None on SKYbrary